Regional Weather Roundup
Issued by NWS

Home | Current Version | Previous Version | Graphics & Text | Print | Product List | Glossary On
Versions: 1 2 3 4 5 6 7 8 9 10 11 12 13 14 15 16 17 18 19 20 21 22 23 24 25 26 27 28 29 30 31 32 33 34 35 36 37 38 39 40 41 42 43 44 45 46 47 48 49 50
000
ASUS43 KFSD 141510
RWRSD

WEATHER ROUNDUP FOR SOUTH DAKOTA
NATIONAL WEATHER SERVICE SIOUX FALLS SD
900 AM CST SUN FEB 14 2016

NOTE: "FAIR" INDICATES FEW OR NO CLOUDS BELOW 12,000 FEET WITH NO
SIGNIFICANT WEATHER AND/OR OBSTRUCTIONS TO VISIBILITY.


SDZ001>005-009-010-012>017-141600-
NORTHWEST AND NORTH CENTRAL SOUTH DAKOTA

CITY           SKY/WX    TMP DP  RH WIND       PRES   REMARKS
BUFFALO          N/A     33  25  72 W12       29.71S WCI  24
FAITH            N/A     32  24  72 W13       29.77R WCI  22
MOBRIDGE       CLOUDY    26  23  88 S3        29.75S
$$

SDZ012>016-024>037-041>051-057-063-072>074-141600-
SOUTHWEST AND SOUTH CENTRAL SOUTH DAKOTA

CITY           SKY/WX    TMP DP  RH WIND       PRES   REMARKS
RAPID CTY ARPT CLOUDY    34  26  72 NW6       29.81F WCI  29
PIERRE         CLOUDY    33  31  92 W7        29.79S WCI  27
CUSTER         CLOUDY    30  17  58 W7        29.79F WCI  23
ELLSWORTH AFB  CLOUDY    33  26  73 W2        29.80S
PHILIP         MOSUNNY   32  27  81 W7        29.81F WCI  26
PINE RIDGE     PTSUNNY   32  23  69 W6        29.87R WCI  26
SPEARFISH      FAIR      34  25  69 W10       29.81F WCI  26
WINNER         FAIR      36  30  79 W12       29.82S
$$

SDZ004>011-016>023-039-040-141600-
NORTHEAST SOUTH DAKOTA

CITY           SKY/WX    TMP DP  RH WIND       PRES   REMARKS
ABERDEEN       CLOUDY    17  12  80 S14       29.83R HAZE    WCI   3
WATERTOWN      CLOUDY    13   8  81 S15       29.80F WCI  -3
BROOKINGS      FLURRIES  14   9  80 S15       29.84S WCI  -1
SISSETON         N/A     13  10  88 S15       29.86F WCI  -3
$$

SDZ017-020-022-023-036>040-048>070-141600-
SOUTHEAST SOUTH DAKOTA

CITY           SKY/WX    TMP DP  RH WIND       PRES   REMARKS
SIOUX FALLS    CLOUDY    15  11  83 SE12      29.86S WCI   2
HURON          CLOUDY    16  12  84 S10       29.84S WCI   4
CHAMBERLAIN    LGT SNOW  29  29  98 NW6       29.81S WCI  23
MITCHELL       CLOUDY    17  13  84 SE7       29.86S WCI   8
YANKTON        CLOUDY    18  12  79 E3        29.85S
$$

ABBREVIATIONS USED IN REMARKS
   TC - TEMPERATURE IN CELSIUS
  WCI - WIND CHILL INDEX
   HX - HEAT INDEX
  VSB - VISIBILITY




USA.gov is the U.S. government's official web portal to all federal, state and local government web resources and services.